Vrubivskyi

Ukraine / Luhansk Region     48˚25′07″N   39˚07′09″E
temp.,
°C
wind,
m/s
gust,
m/s
humid.,
%
clouds,
%
prec.,
mm/h
press.,
hPa
HPBL,
m
29 november, sun
sun2923:00+1˚se4108497 0.0 1025293
02:00se389687 0.0 1025196
05:00+3˚se599595 0.0 1024426
08:00+4˚se6119398 0.0 1025559
11:00+7˚sse71177100 0.0 1025656
14:00+8˚se7107785 0.0 1025735
17:00+7˚se6117698 0.0 1026699
20:00+7˚se6117899 0.0 1027737
30 november, mon
mon3023:00+6˚se51082100 0.0 1026691
02:00+6˚se61084100 0.0 1027635
05:00+6˚ese51084100 0.0 1026628
08:00+4˚ese71079100 0.0 1028551
11:00+6˚ese6106654 0.0 1027870
14:00+5˚ese7106974 0.0 1026853
17:00+5˚ese71171100 0.0 1027907
20:00+3˚ese71269100 0.0 1027772
1 december, tue
tue123:00+1˚ese5117272 0.0 1027632
02:00ese5117652 0.0 1027541
05:00−1˚ese6128511 0.0 1027530
08:00−1˚ese7138427 0.0 1028587
11:00+2˚e8117283 0.0 1028679
14:00+2˚e7117176 0.0 1027731
17:00ese6127751 0.0 1028764
20:00ese8127872 0.0 1029762
2 december, wed
wed223:00ese71179100 0.0 1029756
02:00−1˚ese71180100 0.0 1029637
05:00−2˚ese7118198 0.0 1030616
08:00−2˚ese7118198 0.0 1030632
11:00ese71075100 0.0 1031666
14:00+1˚e6106898 0.0 1030761
17:00−1˚ese6137544 0.0 1030556
20:00−2˚ese6127443 0.0 1031556
3 december, thu
thu323:00−3˚ese6127581 0.0 1031559
02:00−2˚ese6107769 0.0 1031641
05:00−2˚ese61073100 0.0 1031547
08:00−3˚ese61174100 0.0 1032552
11:00−1˚ese6106899 0.0 1032658
14:00ese6967100 0.0 1031724
17:00−2˚ese5117396 0.0 1031581
20:00−3˚ese5127086 0.0 1031567